Terminal Aerodrome Forecast
Issued by NWS Billings, MT

Home | Current Version | Previous Version | Graphics & Text | Print | Product List | Glossary On
Versions: 1 2 3 4 5 6 7 8 9 10 11 12 13 14 15 16 17 18 19 20 21 22 23 24 25 26 27 28 29 30 31 32 33 34 35 36 37 38 39 40
992
FTUS45 KBYZ 220440 AAB
TAFMLS
TAF AMD
KMLS 220440Z 2205/2224 VRB05KT 2SM BR SCT003 BKN080
     FM220700 VRB05KT 1/2SM FZFG VV003
     FM221800 24005KT P6SM FEW003=

USA.gov is the U.S. government's official web portal to all federal, state and local government web resources and services.